FENGYUN 1C DEB, 30697

Orbit data source: Space-Track

FENGYUN 1C DEB, 30697 is space debris in SSO originally from a launch on Mon, 10 May 1999 UTC launched from the Taiyaun Space Center, China (TSC). Fengyun 1C debris stems from the Chinese weather satellite Fengyun-1C, which was intentionally destroyed by a Chinese anti-satellite missile in 2007. This event dramatically increased the amount of space debris, with thousands of trackable fragments posing hazards to satellites and human spaceflight. The Fengyun 1C debris cloud has become a focal point in discussions about space sustainability and the need for international regulations to prevent the creation of new debris.

Loading next visibility...
Identifier
30697, 1999-025ARF
Orbit
SSO
Country
Flag of CNCN / PRC
Related business
Manufacturer
Unknown
Mission
Spacecraft
Bus & Motor
Unknown
Mass
Unknown
Launch date (UTC)
1999-05-10 (27 years ago)
Launch vehicle
Unknown
Launch site
Taiyaun Space Center, China (TSC)
Object type
Payload
Rocket body
Debris
Shape & HBR
Unknown shape, 0.1 m
Radar Cross Section
Small (<0.1 m²)

Expand to show TLE details & history
Last TLE update: 10 hours ago

TLE from 10 hours ago
0 FENGYUN 1C DEB
1 30697U 99025ARF 26122.09417307  .00002800  00000-0  14339-2 0  9996
2 30697  98.8918 183.3335 0089252 147.4333 242.9343 14.14243077982444
Epoch: 2026-05-02T02:15Z
TLE epoch observation values (Epoch: 2026-05-02T02:15:36.553Z)
Latitude
29.121°
Longitude
-75.55935°
Altitude
878.279 km
Speed
7.4 km/s
True Right ascension
11h 53m 26s
True Declination
28° 58' 39"
Sunlit
Object was in full shadow at epoch
Visualization orbit readout
Latitude
Unknown
Longitude
Unknown
Altitude
Unknown
Speed
Unknown
Apparent Right ascension
Unknown
Apparent Declination
Unknown
Sunlit
N/A
Visualization observer readout
Local Sidereal Time
20:04:01
Azimuth
Unknown
Elevation
Unknown
Doppler factor
Unknown
Orbital elements
Apogee altitude
906.505 km
Perigee altitude
777.621 km
Semi-major axis
7,220.2 km
Eccentricity
0.00893
Inclination
98.8918°
RAAN
183.3335°
Arg. of periapsis
147.4333°
True anomaly
242.02819°
Mean anomaly
242.9343°
Eccentric anomaly
242.48078°
Mean motion
3.53769 °/min
Orbital period
101.76 mins
BSTAR
0.0014339
Loading maneuver chart data...
Computing Atmospheric mass density...

Documentation

Showing up to 5 results
|